Home   Weather   Offenburg   Past weeks

Flag for Germany Past Weather in Offenburg, Baden-Württemberg, Germany — Yesterday and Last 2 Weeks

Now
32 °F

Scattered clouds.


Feels Like: 24 °F
Forecast: 22 / 27 °F
Wind: 10 mph from Northeast

Location: Lahr - CAN-AFB

Current Time: Jan 16, 2017 at 4:27:45 pm

Latest Report: Jan 16, 2017 at 3:50 pm


Visibility: N/A

Pressure: 30.27 "Hg

Humidity: 69%

Dew Point: 23 °F

Location of OffenburgLocation

Past Weather in Offenburg — Graph

°F

Offenburg Temperature Yesterday

Maximum temperature yesterday: 32 °F (at 9:20 am)
Minimum temperature yesterday: 30 °F (at 7:20 am)
Average temperature yesterday: 31 °F

High & Low Weather Summary for the Past Weeks

 TemperatureHumidityPressure
High45 °F (Jan 12, 7:50 pm)100% (Jan 2, 10:20 am)30.60 "Hg (Jan 2, 10:20 am)
Low16 °F (Jan 7, 7:50 am)60% (Jan 13, 9:50 am)29.56 "Hg (Jan 12, 7:50 pm)
Average34 °F92%30.10 "Hg
* Reported Jan 2 10:20 am — Jan 16 3:20 pm, Offenburg, Weather by CustomWeather, © 2017

Note: Actual official high and low records may vary slightly from our data, if they occured in-between our weather recording intervals... More about our weather records

Advertising

Offenburg Weather History for the Previous 24 Hours

Scroll right to see more
 ConditionsComfort  
Time TempWeatherWind HumidityBarometerVisibility
3:20 pm
Mon, Jan 16
32 °FScattered clouds.9 mph75%30.27 "HgN/A
2:50 pm30 °FScattered clouds.9 mph80%30.24 "HgN/A
2:20 pm30 °FScattered clouds.8 mph86%30.24 "HgN/A
1:50 pm32 °FScattered clouds.9 mph80%30.24 "HgN/A
1:20 pm32 °FScattered clouds.8 mph80%30.24 "HgN/A
12:50 pm30 °FScattered clouds.8 mph86%30.24 "HgN/A
12:20 pm30 °FPartly sunny.6 mph86%30.24 "HgN/A
11:50 am30 °FPartly sunny.8 mph93%30.24 "HgN/A
11:20 am30 °FBroken clouds.8 mph100%30.24 "HgN/A
10:50 am30 °FPartly sunny.8 mph93%30.24 "Hg4 mi
10:20 am30 °FPartly sunny.7 mph100%30.24 "Hg3 mi
9:20 am28 °FIce fog.2 mph100%30.24 "Hg2 mi
8:50 am27 °FIce fog.3 mph100%30.24 "Hg2 mi
8:20 am28 °FIce fog.2 mph100%30.21 "Hg2 mi
7:50 am27 °FIce fog.3 mph100%30.21 "Hg2 mi
7:20 am27 °FIce fog.1 mph100%30.21 "Hg2 mi
Weather by CustomWeather, © 2017

See weather overviewHow to use our weather pages